WetterOnline ( https://www.wetteronline.de )

Wetter aktuell Hoyerswerda

Aktuelles Wetter: Hoyerswerda (116m)

6-stündlich | Neueste Meldungen
Ortszeit Temperatur Wetter
Do, 18.08. 2:00 18.3° C wolkig
Mi, 17.08. 20:00 29.6° C wolkig
Mi, 17.08. 14:00 31.7° C wolkig
Mi, 17.08. 8:00 20.9° C wolkenlos
Mi, 17.08. 2:00 18.7° C bedeckt
Di, 16.08. 20:00 27.7° C wolkenlos
Di, 16.08. 14:00 30.3° C leicht bewölkt
Di, 16.08. 8:00 19.5° C leicht bewölkt
Ortszeit Temperatur Wetter
Do, 18.08. 7:00 17.3° C bedeckt
Do, 18.08. 6:50 17.3° C bedeckt
Do, 18.08. 6:40 17.0° C bedeckt
Do, 18.08. 6:30 16.2° C bedeckt
Do, 18.08. 6:20 16.2° C bedeckt
Do, 18.08. 6:10 16.1° C bedeckt
Do, 18.08. 6:00 15.9° C bedeckt
Do, 18.08. 5:30 16.1° C bewölkt
Do, 18.08. 5:00 16.7° C wolkig
Do, 18.08. 4:30 17.2° C bewölkt
Do, 18.08. 4:00 17.5° C bewölkt
Ortszeit Relative Feuchte Sichtweite
Do, 18.08. 2:00 75% 50 km
Mi, 17.08. 20:00 35% 60 km
Mi, 17.08. 14:00 27% 60 km
Mi, 17.08. 8:00 67% 40 km
Mi, 17.08. 2:00 76% 40 km
Di, 16.08. 20:00 39% 50 km
Di, 16.08. 14:00 34% 45 km
Di, 16.08. 8:00 80% 30 km
Ortszeit Relative Feuchte Sichtweite
Do, 18.08. 7:00 85% 30 km
Do, 18.08. 6:50 85% -
Do, 18.08. 6:40 87% -
Do, 18.08. 6:30 89% 29 km
Do, 18.08. 6:20 89% -
Do, 18.08. 6:10 88% -
Do, 18.08. 6:00 82% 30 km
Do, 18.08. 5:30 87% 30 km
Do, 18.08. 5:00 87% 35 km
Do, 18.08. 4:30 84% 35 km
Do, 18.08. 4:00 85% 35 km
Ortszeit Niederschlagsmenge Niederschlagsart
Do, 18.08. 2:00 0.0 l/m2 in 6 Std. -
Mi, 17.08. 20:00 0.0 l/m2 in 12 Std. -
Mi, 17.08. 14:00 0.0 l/m2 in 6 Std. -
Mi, 17.08. 8:00 0.0 l/m2 in 12 Std. -
Mi, 17.08. 2:00 0.0 l/m2 in 6 Std. -
Di, 16.08. 20:00 0.0 l/m2 in 12 Std. -
Di, 16.08. 14:00 0.0 l/m2 in 6 Std. -
Di, 16.08. 8:00 0.1 l/m2 in 12 Std. -
Ortszeit Niederschlagsmenge Niederschlagsart
Do, 18.08. 7:00 0.0 l/m2 in 1 Std. -
Do, 18.08. 6:50 keine Meldung -
Do, 18.08. 6:40 keine Meldung -
Do, 18.08. 6:30 0.0 l/m2 in 1 Std. -
Do, 18.08. 6:20 keine Meldung -
Do, 18.08. 6:10 keine Meldung -
Do, 18.08. 6:00 0.0 l/m2 in 1 Std. -
Do, 18.08. 5:30 0.0 l/m2 in 1 Std. -
Do, 18.08. 5:00 0.0 l/m2 in 1 Std. -
Do, 18.08. 4:30 0.0 l/m2 in 1 Std. -
Do, 18.08. 4:00 0.0 l/m2 in 1 Std. -
Ortszeit Stärke Spitze Richtung
km/h Bft. km/h Grad Sektor
Do, 18.08. 2:00 4 1 11 100° O
Mi, 17.08. 20:00 4 1 25 140° SO
Mi, 17.08. 14:00 7 2 22 210° SW
Mi, 17.08. 8:00 4 1 7 160° S
Mi, 17.08. 2:00 0 0 11 - -
Di, 16.08. 20:00 7 2 29 330° NW
Di, 16.08. 14:00 11 2 22 170° S
Di, 16.08. 8:00 6 1 9 190° S
Ortszeit Stärke Spitze Richtung
km/h Bft. km/h Grad Sektor
Do, 18.08. 7:00 4 1 7 150° SO
Do, 18.08. 6:50 4 1 - 150° SO
Do, 18.08. 6:40 4 1 - 150° SO
Do, 18.08. 6:30 0 0 4 - -
Do, 18.08. 6:20 2 1 - 290° W
Do, 18.08. 6:10 2 1 - 230° SW
Do, 18.08. 6:00 0 0 7 - -
Do, 18.08. 5:30 2 1 4 280° W
Do, 18.08. 5:00 4 1 7 140° SO
Do, 18.08. 4:30 4 1 7 130° SO
Do, 18.08. 4:00 4 1 7 140° SO
Ortszeit Untergrenze Bedeckung Gattung
total tief tief mittel hoch
Do, 18.08. 2:00 10500 m 8/8 0/8 - - -
Mi, 17.08. 20:00 3300 m 8/8 1/8 - - -
Mi, 17.08. 14:00 3300 m 6/8 5/8 - - -
Mi, 17.08. 8:00 - 0/8 0/8 - - -
Mi, 17.08. 2:00 3300 m 8/8 8/8 - - -
Di, 16.08. 20:00 - 0/8 0/8 - - -
Di, 16.08. 14:00 1800 m 2/8 2/8 - - -
Di, 16.08. 8:00 10500 m 3/8 0/8 - - -
Ortszeit Bedeckungsgrad in Achtel und Wolkenuntergrenze
Do, 18.08. 7:00 8(6600m)
Do, 18.08. 6:50 8(6600m)
Do, 18.08. 6:40 8
Do, 18.08. 6:30 8(6600m) 8(9000m)
Do, 18.08. 6:20 8(6600m) 8(9000m)
Do, 18.08. 6:10 8
Do, 18.08. 6:00 8(6600m) 8(9000m)
Do, 18.08. 5:30 5(6600m) 8(9000m) 8(10500m)
Do, 18.08. 5:00 1(6600m) 8(9000m) 8(10500m)
Do, 18.08. 4:30 4(6600m) 8(9000m) 8(9000m)
Do, 18.08. 4:00 7(6300m) 8(9000m) 8(10500m)
Ortszeit Luftdruck NN (hPa) Tendenz (hPa in 3 Std.)
Do, 18.08. 2:00 1011 + 0,6
Mi, 17.08. 20:00 1010 - 0,1
Mi, 17.08. 14:00 1010 - 0,5
Mi, 17.08. 8:00 1011 + 0,4
Mi, 17.08. 2:00 1011 + 0,3
Di, 16.08. 20:00 1009 + 0,6
Di, 16.08. 14:00 1009 - 0,4
Di, 16.08. 8:00 1009 + 1,3
Ortszeit Luftdruck NN (hPa) Tendenz (hPa in 3 Std.)
Do, 18.08. 7:00 1011 + 0,1
Do, 18.08. 6:50 1011 keine Meldung
Do, 18.08. 6:40 1010 keine Meldung
Do, 18.08. 6:30 1011 0,0
Do, 18.08. 6:20 1011 keine Meldung
Do, 18.08. 6:10 1010 keine Meldung
Do, 18.08. 6:00 1010 - 0,2
Do, 18.08. 5:30 1010 - 0,3
Do, 18.08. 5:00 1010 - 0,4
Do, 18.08. 4:30 1010 - 0,3
Do, 18.08. 4:00 1010 - 0,3
Ortszeit Schneehöhe (cm)
Do, 18.08. 2:00 0
Mi, 17.08. 20:00 0
Mi, 17.08. 14:00 0
Mi, 17.08. 8:00 0
Mi, 17.08. 2:00 0
Di, 16.08. 20:00 0
Di, 16.08. 14:00 0
Di, 16.08. 8:00 0
Ortszeit Schneehöhe (cm)
Do, 18.08. 7:00 0
Do, 18.08. 6:50 0
Do, 18.08. 6:40 0
Do, 18.08. 6:30 0
Do, 18.08. 6:20 0
Do, 18.08. 6:10 0
Do, 18.08. 6:00 0
Do, 18.08. 5:30 0
Do, 18.08. 5:00 0
Do, 18.08. 4:30 0
Do, 18.08. 4:00 0
Link zu dieser Seite / Seite empfehlen

Das Wetter in ...